Northport, AL

6:43 AM CDT on September 26, 2016 (GMT -0500)
Tuscaloosa Municipal

Weather History for KTCL - September, 2012

Change the Weather History Date:

Tuesday, September 4, 2012

  Actual Average Record
Temperature  
Mean Temperature 80 °F 79 °F  
Max Temperature 86 °F 90 °F 104 °F (1954)
Min Temperature 73 °F 68 °F 50 °F (1952)
Degree Days  
Heating Degree Days 0 0  
Month to date heating degree days 0 0  
Since 1 July heating degree days 0 0  
Cooling Degree Days 14    
Growing Degree Days 28 (Base 50)    
Moisture  
Dew Point 75 °F    
Average Humidity 90    
Maximum Humidity 100    
Minimum Humidity 79    
Precipitation  
Precipitation 0.93 in 0.10 in 1.13 in (1988)
Month to date precipitation 5.08 0.42  
Year to date precipitation 34.77 36.29  
Sea Level Pressure  
Sea Level Pressure 29.88 in    
Wind  
Wind Speed 4 mph (SSE)    
Max Wind Speed 12 mph    
Max Gust Speed 16 mph    
Visibility 6 miles    
Events Rain , Thunderstorm    
T = Trace of Precipitation, MM = Missing Value Source: NWS Daily Summary

Daily Weather History Graph

Daily Weather History Graph

Search for Another Location

Airport or City:

Trip Planner

Search our weather history database for the weather conditions in past years. The results will help you decide how hot, cold, wet, or windy it might be!

Date:

Astronomy

Sep. 04, 2012 Rise Set
Actual Time 6:27 AM CDT 7:10 PM CDT
Civil Twilight 6:01 AM CDT 7:36 PM CDT
Nautical Twilight 5:32 AM CDT 8:05 PM CDT
Astronomical Twilight 5:01 AM CDT 8:35 PM CDT
Moon 9:21 PM CDT (9/4) 10:17 AM CDT (9/4)
Length of Visible Light 13h 34m
Length of Day
12h 43m
Waning Gibbous, 83% of the Moon is Illuminated
Sep 4
Waning Gibbous
Sep 8
Last Quarter
Sep 15
New
Sep 22
First Quarter
Sep 29
Full

Hourly Weather History & Observations

Time (CDT) Temp. Heat Index Dew Point Humidity Pressure Visibility Wind Dir Wind Speed Gust Speed Precip Events Conditions
12:53 AM 73.0 °F - 72.0 °F 96% 29.89 in 10.0 mi South 3.5 mph - N/A   Mostly Cloudy
1:53 AM 73.9 °F - 72.0 °F 93% 29.90 in 10.0 mi Calm Calm - N/A   Overcast
2:53 AM 73.9 °F - 73.0 °F 97% 29.89 in 8.0 mi NNE 9.2 mph - 0.01 in   Overcast
3:42 AM 75.2 °F - 73.4 °F 94% 29.89 in 7.0 mi South 6.9 mph - 0.10 in Rain , Thunderstorm Light Thunderstorms and Rain
3:47 AM 73.4 °F - 73.4 °F 100% 29.89 in 1.8 mi SSW 3.5 mph - 0.17 in Rain , Thunderstorm Light Thunderstorms and Rain
3:53 AM 73.9 °F - 73.0 °F 97% 29.87 in 1.0 mi South 8.1 mph - 0.23 in Rain , Thunderstorm Heavy Rain
3:59 AM 73.4 °F - 73.4 °F 100% 29.88 in 3.0 mi South 8.1 mph - 0.00 in Rain Light Rain
4:09 AM 73.4 °F - 73.4 °F 100% 29.89 in 10.0 mi SW 5.8 mph - 0.00 in Thunderstorm Overcast
4:24 AM 73.4 °F - 73.4 °F 100% 29.88 in 2.5 mi South 8.1 mph - 0.06 in Rain Rain
4:38 AM 73.4 °F - 73.4 °F 100% 29.88 in 9.0 mi South 6.9 mph - 0.06 in   Overcast
4:45 AM 73.4 °F - 73.4 °F 100% 29.88 in 10.0 mi South 4.6 mph - 0.06 in Thunderstorm Overcast
4:53 AM 73.9 °F - 73.0 °F 97% 29.87 in 9.0 mi South 4.6 mph - 0.06 in Thunderstorm Overcast
4:56 AM 73.4 °F - 73.4 °F 100% 29.88 in 9.0 mi South 4.6 mph - N/A   Mostly Cloudy
5:10 AM 73.4 °F - 73.4 °F 100% 29.87 in 1.5 mi Calm Calm - 0.09 in Rain Rain
5:19 AM 73.4 °F - 73.4 °F 100% 29.87 in 1.2 mi South 8.1 mph - 0.16 in Rain Heavy Rain
5:23 AM 75.2 °F - 73.4 °F 94% 29.87 in 3.0 mi South 10.4 mph - 0.18 in Rain Light Rain
5:38 AM 75.2 °F - 73.4 °F 94% 29.87 in 3.0 mi SE 5.8 mph - 0.23 in Rain , Thunderstorm Heavy Thunderstorms and Rain
5:53 AM 75.0 °F - 73.9 °F 96% 29.86 in 7.0 mi ESE 4.6 mph - 0.23 in Rain , Thunderstorm Light Thunderstorms and Rain
6:00 AM 75.2 °F - 73.4 °F 94% 29.88 in 2.5 mi NNW 4.6 mph - 0.07 in Rain , Thunderstorm Heavy Thunderstorms and Rain
6:06 AM 75.2 °F - 73.4 °F 94% 29.87 in 1.0 mi South 4.6 mph - 0.14 in Rain , Thunderstorm Heavy Thunderstorms and Rain
6:13 AM 75.2 °F - 73.4 °F 94% 29.87 in 3.0 mi Calm Calm - 0.14 in Rain , Thunderstorm Light Thunderstorms and Rain
6:38 AM 75.2 °F - 73.4 °F 94% 29.87 in 10.0 mi South 10.4 mph - 0.15 in Thunderstorm Thunderstorm
6:51 AM 75.2 °F - 73.4 °F 94% 29.88 in 10.0 mi Variable 5.8 mph - 0.15 in Thunderstorm Thunderstorm
6:53 AM 75.9 °F - 73.0 °F 91% 29.88 in 10.0 mi Variable 3.5 mph - 0.15 in Thunderstorm Thunderstorm
7:07 AM 75.2 °F - 73.4 °F 94% 29.89 in 10.0 mi SSE 9.2 mph - N/A Thunderstorm Overcast
7:44 AM 75.2 °F - 73.4 °F 94% 29.88 in 5.0 mi South 8.1 mph - N/A Thunderstorm Mostly Cloudy
7:53 AM 75.0 °F - 73.9 °F 96% 29.88 in 5.0 mi SSE 3.5 mph - N/A Thunderstorm Overcast
7:59 AM 75.2 °F - 73.4 °F 94% 29.90 in 6.0 mi Calm Calm - N/A Thunderstorm Overcast
8:16 AM 75.2 °F - 73.4 °F 94% 29.90 in 5.0 mi Calm Calm - N/A Thunderstorm Overcast
8:40 AM 75.2 °F - 73.4 °F 94% 29.89 in 6.0 mi Calm Calm - N/A   Overcast
8:53 AM 77.0 °F - 75.0 °F 94% 29.88 in 5.0 mi South 5.8 mph - N/A   Overcast
9:24 AM 77.0 °F - 75.2 °F 94% 29.89 in 5.0 mi Calm Calm - N/A   Partly Cloudy
9:41 AM 78.8 °F - 75.2 °F 89% 29.90 in 6.0 mi South 3.5 mph - N/A   Mostly Cloudy
9:53 AM 78.1 °F - 75.0 °F 90% 29.90 in 7.0 mi Calm Calm - N/A   Mostly Cloudy
10:35 AM 80.6 °F 86.2 °F 75.2 °F 84% 29.90 in 7.0 mi South 6.9 mph - N/A   Overcast
10:53 AM 81.0 °F 87.3 °F 75.9 °F 85% 29.90 in 7.0 mi South 5.8 mph - N/A   Overcast
11:50 AM 82.4 °F 90.9 °F 77.0 °F 84% 29.89 in 7.0 mi Calm Calm - N/A   Mostly Cloudy
11:53 AM 82.9 °F 90.8 °F 75.9 °F 79% 29.89 in 7.0 mi Calm Calm - N/A   Mostly Cloudy
12:01 PM 82.4 °F 89.5 °F 75.2 °F 79% 29.89 in 7.0 mi Calm Calm - N/A   Overcast
12:53 PM 84.9 °F 95.3 °F 77.0 °F 77% 29.87 in 8.0 mi Calm Calm - N/A   Overcast
1:53 PM 84.0 °F 93.7 °F 77.0 °F 79% 29.86 in 7.0 mi East 3.5 mph - 0.00 in Rain Light Rain
2:29 PM 84.2 °F 96.1 °F 78.8 °F 84% 29.85 in 7.0 mi SW 4.6 mph - 0.00 in Thunderstorm Mostly Cloudy
2:44 PM 84.2 °F 96.1 °F 78.8 °F 84% 29.85 in 7.0 mi West 5.8 mph - 0.00 in   Scattered Clouds
2:53 PM 84.2 °F 96.1 °F 78.8 °F 84% 29.85 in 6.0 mi WSW 3.5 mph - N/A   Haze
3:14 PM 84.2 °F 96.1 °F 78.8 °F 84% 29.85 in 7.0 mi WSW 4.6 mph - N/A   Mostly Cloudy
3:36 PM 82.4 °F 92.4 °F 78.8 °F 89% 29.85 in 1.0 mi Calm Calm - 0.05 in Rain Rain
3:47 PM 82.4 °F 92.4 °F 78.8 °F 89% 29.85 in 2.0 mi NE 9.2 mph - 0.07 in Rain Light Rain
3:53 PM 80.1 °F 85.4 °F 75.9 °F 87% 29.84 in 0.8 mi NNW 6.9 mph - 0.21 in Rain Heavy Rain
4:02 PM 80.6 °F 86.2 °F 75.2 °F 84% 29.85 in 1.0 mi Calm Calm - 0.04 in Rain Light Rain
4:05 PM 80.6 °F 86.2 °F 75.2 °F 84% 29.85 in 3.0 mi WNW 3.5 mph - 0.04 in Rain Light Rain
4:53 PM 82.9 °F 92.8 °F 78.1 °F 85% 29.85 in 6.0 mi East 5.8 mph - 0.04 in Rain Light Rain
5:53 PM 82.0 °F 91.0 °F 78.1 °F 88% 29.86 in 7.0 mi Variable 3.5 mph - 0.00 in   Partly Cloudy
6:53 PM 80.1 °F 85.8 °F 77.0 °F 90% 29.85 in 5.0 mi East 3.5 mph - N/A   Clear
7:53 PM 79.0 °F - 77.0 °F 94% 29.86 in 7.0 mi Calm Calm - N/A   Scattered Clouds
8:00 PM 80.6 °F 86.2 °F 75.2 °F 84% 29.87 in 7.0 mi ESE 4.6 mph - N/A   Mostly Cloudy
8:53 PM 79.0 °F - 75.9 °F 90% 29.88 in 7.0 mi Calm Calm - N/A   Mostly Cloudy
9:26 PM 78.8 °F - 75.2 °F 89% 29.89 in 8.0 mi Calm Calm - N/A   Partly Cloudy
9:53 PM 78.1 °F - 75.0 °F 90% 29.89 in 9.0 mi ESE 3.5 mph - N/A   Clear
10:02 PM 78.8 °F - 75.2 °F 89% 29.90 in 8.0 mi East 3.5 mph - N/A   Partly Cloudy
10:20 PM 77.0 °F - 75.2 °F 94% 29.90 in 8.0 mi ESE 3.5 mph - N/A   Mostly Cloudy
10:53 PM 77.0 °F - 73.4 °F 89% 29.90 in 9.0 mi SE 9.2 mph - N/A   Mostly Cloudy
11:53 PM 75.9 °F - 73.9 °F 94% 29.88 in 9.0 mi SE 4.6 mph - N/A   Overcast